Weather in Pushkino

Russia / Republic of Mordovia     54°30′48″N   45°22′08″E
temp.,
°C
wind,
m/s
gust,
m/s
humid.,
%
clouds,
%
prec.,
mm/h
press.,
hPa
HPBL,
m
4 march, thu
thu400:00−5wsw5139443 0.0 1008382
03:00−2wsw6129371 0.1 1006590
06:00−3wsw61394100 0.1 1003718
09:00−2sw91590100 0.3 1000778
12:000wsw101697100 0.6 9971084
15:00+1w91587100 0.8 9981057
18:00−1w61297100 0.5 999661
21:00−2w4986100 0.9 1000259
5 march, fri
fri500:00−4w3592100 0.0 1000113
03:00−5nw2496100 0.3 1001133
06:00−8nnw3395100 0.1 100357
09:00−9nnw2495100 0.1 1005145
12:00−7nw239150 0.0 1007265
15:00−6w239266 0.0 1008268
18:00−10sw22929 0.0 100921
21:00−11sw239328 0.0 101121
6 march, sat
sat600:00−12sw339521 0.0 101227
03:00−12wsw349754 0.1 101277
06:00−14wnw349684 0.0 101347
09:00−13wnw359362 0.0 1014154
12:00−10wnw359387 0.0 1014336
15:00−8nw468693 0.1 1014861
18:00−14nnw349499 0.0 101449
21:00−17wnw239566 0.0 101620
7 march, sun
sun700:00−18w339817 0.0 101623
03:00−19sw33959 0.0 101626
06:00−19ssw47930 0.0 101592
09:00−14ssw7129132 0.0 1012347
12:00−8ssw81487100 0.0 1008801
15:00−6ssw91585100 0.1 10041065
18:00−6ssw101792100 0.9 9991131
21:00−4sw101792100 1.8 9961040
8 march, mon
mon800:00−4wsw81495100 0.9 993766
03:00−8w6138299 1.6 996441
06:00−11wsw5118837 0.0 998264
09:00−9wsw6128869 0.0 998674
12:00−7w6108047 0.0 1000954
15:00−7w6108029 0.0 1002912
18:00−10w511850 0.0 1005248
21:00−13w49924 0.0 1008154